Moses Lake, WA
on Monday, November 5, 2012

Monday
Previous Day Next Day
Daily Summary
 ActualAverageRecord
Temperature
Mean Temperature °F 42°F  
Max Temperature 63°F 52°F 63°F (2012)
Min Temperature 40°F 31°F 5°F (2003)
Degree Days
Heating Degree Days 13 23  
Month to date heating degree days 71 113  
Since 1 July heating degree days 596 750  
Cooling Degree Days 0 0  
Month to date cooling degree days 0 0  
Year to date cooling degree days 719 615  
Growing Degree Days1 (Base °F )  
Moisture
Dew Point 42°F   
Average Humidity 64    
Maximum Humidity 89    
Minimum Humidity 39    
Precipitation
Precipitation 0.00 in 0.04 in 1.25 in (1998)
Month to date precipitation 0.08 0.18  
Year to date precipitation 6.68 6.65  
Wind
Wind Speed 7 mph   
Max Wind Speed 16 mph   
Max Gust Speed 20 mph   
Visibility 10 miles   
Events     

Key: T is trace of precipitation, MM is missing value
Source: NWS Daily Summary
Time(PST)TemperatureDew PointHumidity Pressure Visibility Wind DirectionWind SpeedGust SpeedPrecipitationEvents Conditions
12:52 AM 52.0°F 48.0°F 86% 30.22 in 10.0 miles South 8.1 mph - N/A   Clear
1:52 AM 51.1°F 46.9°F 86% 30.21 in 10.0 miles South 8.1 mph - N/A   Clear
2:52 AM 51.1°F 46.9°F 86% 30.19 in 10.0 miles SSE 5.8 mph - N/A   Clear
3:52 AM 51.1°F 46.9°F 86% 30.17 in 10.0 miles SSE 9.2 mph - N/A   Clear
4:52 AM 50.0°F 46.0°F 86% 30.17 in 10.0 miles South 8.1 mph - N/A   Clear
5:52 AM 52.0°F 46.9°F 83% 30.17 in 10.0 miles ENE 11.5 mph - N/A   Clear
6:52 AM 53.1°F 48.0°F 83% 30.18 in 10.0 miles South 8.1 mph - N/A   Clear
7:52 AM 59.0°F 45.0°F 60% 30.20 in 10.0 miles SW 10.4 mph - N/A   Clear
8:52 AM 55.0°F 46.0°F 72% 30.23 in 10.0 miles Calm Calm - N/A   Clear
9:52 AM 60.1°F 48.0°F 64% 30.24 in 10.0 miles SW 3.5 mph - N/A   Clear
10:52 AM 61.0°F 46.9°F 60% 30.25 in 10.0 miles West 4.6 mph - N/A   Clear
11:52 AM 61.0°F 43.0°F 52% 30.26 in 10.0 miles SSW 11.5 mph - N/A   Clear
12:52 PM 63.0°F 39.0°F 41% 30.24 in 10.0 miles West 13.8 mph - N/A   Clear
1:52 PM 63.0°F 39.0°F 41% 30.23 in 10.0 miles West 13.8 mph - N/A   Clear
2:52 PM 61.0°F 37.9°F 42% 30.25 in 10.0 miles WSW 8.1 mph - N/A   Clear
3:52 PM 60.1°F 36.0°F 41% 30.24 in 10.0 miles SSW 4.6 mph - N/A   Clear
4:52 PM 57.0°F 37.9°F 49% 30.23 in 10.0 miles Calm Calm - N/A   Clear
5:52 PM 52.0°F 41.0°F 66% 30.23 in 10.0 miles SSE 3.5 mph - N/A   Clear
6:52 PM 50.0°F 39.9°F 68% 30.22 in 10.0 miles West 3.5 mph - N/A   Clear
7:52 PM 46.9°F 39.0°F 74% 30.22 in 10.0 miles SSE 5.8 mph - N/A   Clear
8:52 PM 44.1°F 37.9°F 79% 30.22 in 10.0 miles SSE 4.6 mph - N/A   Clear
9:52 PM 41.0°F 36.0°F 82% 30.21 in 10.0 miles North 5.8 mph - N/A   Clear
10:52 PM 39.9°F 36.0°F 86% 30.20 in 10.0 miles North 5.8 mph - N/A   Clear
11:52 PM 39.2°F 35.6°F 87% 30.18 in 10.0 miles North 4.6 mph - N/A   Clear
Moon Phase
Nov. 05 Nov. 06 Nov. 13 Nov. 20 Nov. 28
Sunrise:06:47 AM (PST) Moon Rise:10:17 PM (PST)11/5
Sunset:04:33 PM (PST) Moon Set:12:09 PM (PST)11/5

Copyright © 2014 The Weather Underground, Inc.